[[{"header":{"parameterUnit":"m.s-1","parameterCategory":1,"la1":30.2991,"la2":30.254,"lo1":-89.0895,"lo2":-89.0444,"dy":0.0017,"dx":0.0017,"nx":28,"ny":28,"refTime":"2024-06-02T21:00:00:Z","depth":0,"parameterNumber":2,"parameterNumberName":"U-component_of_WINDS"},"data":[0,0,0,0,0,0,0,0,0,0,0,0,0,0,0,0,0,0,0,0,0,0,0,0,0,0,0,0,0,0,0,0,0,0,0,0,0,0,0,0,0,0,0,0,0,0,0,0,0,0,0,0,0,0,0,0,0,0,-0.0268,-0.0268,0,-0.0292,-0.0292,-0.0293,-0.031,-0.031,-0.0311,-0.0311,-0.0335,-0.0336,-0.0336,0,0,0,0,0,0,0,0,0,0,0,0,0,-0.0238,-0.0239,-0.0268,-0.0268,-0.0269,-0.0292,-0.0292,-0.0293,-0.031,-0.031,-0.0311,-0.0311,-0.0335,-0.0336,-0.0336,0,0,0,0,0,0,0,0,0,0,0,0,0,-0.0256,-0.0239,-0.0268,-0.028,-0.0282,-0.0292,-0.0292,-0.0293,-0.031,-0.031,-0.0311,-0.0311,-0.0335,-0.0336,-0.0336,-0.0336,0,0,-0.0339,-0.0339,0,0,0,0,0,0,0,0,-0.0255,-0.0257,-0.0278,-0.0279,-0.0281,-0.0298,-0.0291,-0.0307,-0.031,-0.0299,-0.0311,-0.0311,-0.0323,-0.0325,-0.0329,-0.0338,-0.0339,-0.0339,-0.0339,-0.034,-0.034,0,0,0,0,0,0,0,-0.0253,-0.0256,-0.0278,-0.0278,-0.028,-0.0285,-0.0288,-0.0294,-0.0309,-0.03,-0.0302,-0.0304,-0.0324,-0.0328,-0.0329,-0.0339,-0.0339,-0.0339,-0.034,-0.034,-0.0351,-0.0351,0,0,0,0,0,0,-0.025,-0.0255,-0.0277,-0.0278,-0.0268,-0.0285,-0.0288,-0.0293,-0.0309,-0.0312,-0.0304,-0.0305,-0.0326,-0.0328,-0.033,-0.0332,-0.034,-0.034,-0.0341,-0.0351,-0.0351,-0.035,0,0,0,0,0,0,-0.025,-0.0252,-0.0276,-0.0267,-0.027,-0.0285,-0.029,-0.0293,-0.0297,-0.0312,-0.0315,-0.0305,-0.0327,-0.0329,-0.0335,-0.0333,-0.0341,-0.0341,-0.0351,-0.0351,-0.0351,-0.0336,0,0,0,0,0,0,-0.0249,-0.0252,-0.0252,-0.0267,-0.0271,-0.028,-0.029,-0.0293,-0.0298,-0.03,-0.0314,-0.0317,-0.0327,-0.0334,-0.0336,-0.0335,-0.0342,-0.0351,-0.0351,-0.0351,-0.0337,-0.0335,-0.0334,0,0,0,0,0,-0.0247,-0.0246,-0.0252,-0.0254,-0.0271,-0.028,-0.0282,-0.0294,-0.0298,-0.0299,-0.0308,-0.0317,-0.0333,-0.0334,-0.0337,-0.0336,-0.0351,-0.0351,-0.0351,-0.0337,-0.0335,-0.0334,0,0,0,0,0,0,-0.023,-0.0248,-0.0254,-0.0258,-0.0267,-0.0283,-0.0284,-0.0291,-0.03,-0.0301,-0.0315,-0.0318,-0.0322,-0.033,-0.033,-0.0337,-0.0343,-0.0343,-0.0332,-0.0331,-0.033,-0.0328,-0.0343,0,0,0,0,0,-0.0227,-0.0233,-0.0248,-0.025,-0.0254,-0.0268,-0.0272,-0.0281,-0.0291,-0.0295,-0.0305,-0.0315,-0.0322,-0.0327,-0.0335,-0.0338,-0.0342,-0.0338,-0.0337,-0.0336,-0.0336,-0.0339,-0.0338,-0.0349,-0.0349,-0.0349,0,0,-0.022,-0.0231,-0.0233,-0.0247,-0.0255,-0.0261,-0.0271,-0.0277,-0.0282,-0.0296,-0.0302,-0.031,-0.0322,-0.0327,-0.0329,-0.0333,-0.0334,-0.0335,-0.0334,-0.0335,-0.0338,-0.0337,-0.0336,-0.0349,-0.0349,-0.0349,0,0,-0.0211,-0.0219,-0.0222,-0.023,-0.0242,-0.0252,-0.0252,-0.0267,-0.0273,-0.028,-0.0291,-0.0297,-0.0309,-0.0317,-0.0323,-0.0318,-0.0326,-0.032,-0.0313,-0.0316,-0.0315,-0.0315,-0.0313,-0.0313,-0.032,-0.032,-0.032,0,-0.0201,-0.021,-0.0222,-0.0228,-0.0234,-0.0247,-0.025,-0.0258,-0.0272,-0.0276,-0.0279,-0.0296,-0.0305,-0.0312,-0.0311,-0.0315,-0.0317,-0.0318,-0.0314,-0.0314,-0.0313,-0.0312,-0.0312,-0.0319,-0.0319,-0.0319,-0.0319,0,-0.0198,-0.0204,-0.0205,-0.0218,-0.0224,-0.0229,-0.0242,-0.0247,-0.0255,-0.0264,-0.0271,-0.0282,-0.0293,-0.0295,-0.0302,-0.0304,-0.0306,-0.0312,-0.0318,-0.0311,-0.0311,-0.031,-0.0318,-0.0318,-0.0319,-0.0319,0,0,-0.0178,-0.0199,-0.0199,-0.0206,-0.0221,-0.0226,-0.0231,-0.0242,-0.0246,-0.0256,-0.0261,-0.0271,-0.0277,-0.0284,-0.0293,-0.0295,-0.0291,-0.0301,-0.0301,-0.0299,-0.0295,-0.029,-0.029,-0.0297,-0.0297,-0.0297,-0.0294,0,-0.0172,-0.0181,-0.0193,-0.0199,-0.0206,-0.0219,-0.0224,-0.0233,-0.0242,-0.0249,-0.0259,-0.0267,-0.0273,-0.0278,-0.0281,-0.0291,-0.0291,-0.0292,-0.0302,-0.0302,-0.0299,-0.0289,-0.0285,-0.0281,-0.0294,-0.0294,-0.0294,0,-0.0165,-0.0175,-0.0181,-0.0197,-0.02,-0.0204,-0.0215,-0.0221,-0.0233,-0.0239,-0.0247,-0.0256,-0.0263,-0.0269,-0.0279,-0.0279,-0.0284,-0.029,-0.029,-0.0292,-0.0298,-0.0291,-0.0281,-0.028,-0.0293,-0.0293,-0.0293,0,-0.0151,-0.0165,-0.0172,-0.0177,-0.0195,-0.0197,-0.0205,-0.0217,-0.0223,-0.0232,-0.0237,-0.0247,-0.0253,-0.0261,-0.0273,-0.0276,-0.0282,-0.0288,-0.0288,-0.0287,-0.0289,-0.0288,-0.0279,-0.0291,-0.0291,-0.0291,-0.0291,0,-0.0143,-0.0147,-0.0166,-0.0169,-0.0174,-0.0188,-0.0193,-0.0201,-0.0212,-0.0218,-0.023,-0.0235,-0.0251,-0.0259,-0.0268,-0.0275,-0.0278,-0.0283,-0.0286,-0.0283,-0.0282,-0.0286,-0.0287,-0.0291,-0.0291,-0.0291,-0.0291,0,-0.0129,-0.0141,-0.0149,-0.0165,-0.0169,-0.0172,-0.0186,-0.0191,-0.0201,-0.0208,-0.0211,-0.0226,-0.0236,-0.0249,-0.0262,-0.0269,-0.0275,-0.0278,-0.0271,-0.0272,-0.0271,-0.0272,-0.0265,-0.0265,-0.0276,-0.0276,-0.0276,0,-0.0123,-0.0126,-0.0143,-0.0148,-0.0155,-0.0163,-0.0169,-0.0183,-0.0189,-0.0203,-0.0206,-0.0217,-0.0226,-0.0241,-0.0253,-0.0264,-0.0268,-0.0265,-0.027,-0.0267,-0.0269,-0.0269,-0.027,-0.0264,-0.0264,-0.0264,-0.0264,0,-0.0112,-0.0118,-0.0126,-0.0137,-0.0144,-0.0154,-0.0163,-0.0167,-0.0183,-0.0189,-0.0199,-0.0206,-0.022,-0.0231,-0.0243,-0.0252,-0.026,-0.0262,-0.0263,-0.0259,-0.0255,-0.0258,-0.0268,-0.0262,-0.0262,-0.0262,-0.0262,-0.0262,-0.0102,-0.0106,-0.0118,-0.0128,-0.0137,-0.0146,-0.0151,-0.0161,-0.017,-0.0183,-0.019,-0.02,-0.0213,-0.023,-0.0238,-0.0246,-0.025,-0.025,-0.0251,-0.0251,-0.025,-0.0253,-0.0249,-0.0249,-0.0249,-0.0249,-0.0249,0,-0.0092,-0.0101,-0.0109,-0.0123,-0.013,-0.0138,-0.0149,-0.0155,-0.0164,-0.0175,-0.0184,-0.0196,-0.0206,-0.022,-0.0231,-0.0235,-0.024,-0.0238,-0.0238,-0.024,-0.0246,-0.0245,-0.0234,-0.0234,-0.0234,-0.0234,-0.0234,-0.0234,-0.0088,-0.0095,-0.0103,-0.0115,-0.0124,-0.0134,-0.014,-0.0148,-0.0157,-0.017,-0.0179,-0.0187,-0.02,-0.0212,-0.0222,-0.0226,-0.023,-0.0227,-0.0232,-0.0238,-0.0239,-0.024,-0.0239,-0.0228,-0.0228,-0.0226,-0.0226,-0.0226]},{"header":{"parameterUnit":"m.s-1","parameterCategory":1,"la1":30.2991,"la2":30.254,"lo1":-89.0895,"lo2":-89.0444,"dy":0.0017,"dx":0.0017,"nx":28,"ny":28,"refTime":"2024-06-02T21:00:00:Z","depth":0,"parameterNumber":3,"parameterNumberName":"V-component_of_WINDS"},"data":[0,0,0,0,0,0,0,0,0,0,0,0,0,0,0,0,0,0,0,0,0,0,0,0,0,0,0,0,0,0,0,0,0,0,0,0,0,0,0,0,0,0,0,0,0,0,0,0,0,0,0,0,0,0,0,0,0,0,2.902,2.9021,0,2.9064,2.9065,2.9065,2.8984,2.8981,2.8978,2.8976,2.902,2.9024,2.9027,0,0,0,0,0,0,0,0,0,0,0,0,0,2.8862,2.8866,2.902,2.9021,2.9021,2.9064,2.9065,2.9065,2.8984,2.8981,2.8977,2.8974,2.9019,2.9023,2.9028,0,0,0,0,0,0,0,0,0,0,0,0,0,2.8921,2.8867,2.902,2.8986,2.8983,2.9064,2.9065,2.9066,2.8985,2.8981,2.8977,2.8973,2.9017,2.9023,2.9028,2.9144,0,0,2.9045,2.9048,0,0,0,0,0,0,0,0,2.8918,2.8927,2.899,2.8988,2.8985,2.9014,2.9025,2.9092,2.8986,2.8984,2.8975,2.8971,2.9021,2.9026,2.9044,2.9146,2.9148,2.9046,2.9049,2.9052,2.9053,0,0,0,0,0,0,0,2.8914,2.8925,2.9037,2.8991,2.8988,2.8967,2.8971,2.9038,2.9025,2.8984,2.8978,2.8985,2.9019,2.9038,2.9044,2.9149,2.9046,2.9051,2.9054,2.9056,2.9346,2.9351,0,0,0,0,0,0,2.8914,2.8922,2.9036,2.9039,2.8941,2.8973,2.8978,2.9009,2.9024,2.9022,2.8988,2.8981,2.9031,2.9038,2.9045,2.918,2.9051,2.9057,2.906,2.9342,2.9347,2.9352,0,0,0,0,0,0,2.8911,2.8925,2.9034,2.8979,2.8991,2.8981,2.9016,2.9012,2.9031,2.9027,2.9024,2.901,2.9028,2.9037,2.912,2.9181,2.9059,2.9064,2.9337,2.9344,2.935,2.9453,0,0,0,0,0,0,2.8907,2.8925,2.897,2.898,2.8994,2.9109,2.902,2.9016,2.9041,2.9032,2.9047,2.9046,2.9025,2.9112,2.9125,2.9186,2.9069,2.9331,2.934,2.9348,2.9444,2.9462,2.9478,0,0,0,0,0,2.8902,2.8997,2.8972,2.8987,2.905,2.9113,2.9121,2.9096,2.9047,2.9091,2.9088,2.9045,2.9172,2.9121,2.9135,2.9199,2.9327,2.9338,2.9347,2.9437,2.9459,2.9478,0,0,0,0,0,0,2.8994,2.8998,2.8971,2.9073,2.9093,2.9099,2.9154,2.9121,2.9155,2.9145,2.9112,2.9116,2.9205,2.921,2.9153,2.9311,2.9241,2.9254,2.9304,2.9325,2.9342,2.9339,2.9073,0,0,0,0,0,2.9027,2.9078,2.9078,2.9168,2.918,2.9166,2.9192,2.9171,2.919,2.9199,2.9202,2.9222,2.9266,2.9296,2.9337,2.9444,2.9445,2.9495,2.9512,2.9526,2.9537,2.9593,2.9614,2.9384,2.9384,2.9384,0,0,2.9094,2.9102,2.9137,2.9187,2.92,2.9253,2.9173,2.9233,2.9271,2.9208,2.9285,2.9288,2.9308,2.9404,2.9446,2.9411,2.9601,2.9538,2.9549,2.9554,2.9605,2.9627,2.9646,2.9391,2.939,2.9389,0,0,2.9243,2.9255,2.9331,2.9345,2.9366,2.9356,2.9374,2.9385,2.9384,2.9461,2.9414,2.9459,2.9536,2.9552,2.957,2.9723,2.9684,2.9737,2.9825,2.9879,2.9897,2.9913,2.9966,2.9986,2.9749,2.9749,2.9749,0,2.9324,2.9402,2.9374,2.9436,2.9459,2.9403,2.9478,2.9493,2.9527,2.9543,2.9503,2.9598,2.9608,2.9704,2.9742,2.9759,2.9777,2.9735,2.9897,2.9913,2.9927,2.9977,2.9998,2.9755,2.9754,2.9754,2.9753,0,2.95,2.9555,2.9613,2.9646,2.9675,2.9743,2.9724,2.9756,2.9732,2.9726,2.9804,2.9813,2.9854,2.9875,2.9853,2.9969,2.9946,2.9903,2.9832,2.9956,3.0002,3.0022,2.9764,2.9762,2.976,2.9758,0,0,2.971,2.9725,2.9746,2.976,2.9778,2.9819,2.9884,2.9923,2.9951,2.9976,3.0029,3.0094,3.0053,3.0074,3.0052,3.01,3.0218,3.005,3.005,3.008,3.0345,3.0377,3.04,3.0193,3.0196,3.0199,3.0343,0,2.9857,2.997,2.9944,3.0055,3.0104,3.005,3.0107,3.0123,3.0118,3.0158,3.0152,3.0199,3.0142,3.0154,3.0199,3.0195,3.0271,3.0184,3.0241,3.0243,3.0237,3.0425,3.046,3.0595,3.0361,3.0364,3.0366,0,3.0044,3.0075,3.019,3.0198,3.0218,3.0269,3.0302,3.0341,3.0358,3.0351,3.0373,3.0342,3.0404,3.0333,3.0419,3.036,3.0381,3.0383,3.0387,3.0391,3.0312,3.0433,3.0637,3.0657,3.0395,3.0393,3.0391,0,3.0185,3.0255,3.0332,3.0345,3.0357,3.0394,3.04,3.0413,3.0437,3.0466,3.0481,3.0517,3.0537,3.0564,3.0542,3.0493,3.0631,3.0558,3.0626,3.0626,3.0657,3.0656,3.0867,3.0673,3.0672,3.0672,3.0671,0,3.0351,3.0424,3.0395,3.0443,3.0521,3.0491,3.0569,3.0569,3.0581,3.0626,3.0582,3.0626,3.0595,3.0635,3.0619,3.0691,3.07,3.0696,3.069,3.0699,3.07,3.0713,3.0703,3.0677,3.0676,3.0675,3.0674,0,3.0522,3.0505,3.0586,3.059,3.0592,3.065,3.0652,3.0696,3.0687,3.0745,3.0757,3.0743,3.0788,3.0769,3.0817,3.0806,3.0898,3.0881,3.0893,3.0888,3.0956,3.095,3.1183,3.1212,3.1,3.1002,3.1003,0,3.0629,3.0683,3.0692,3.0719,3.0729,3.0774,3.0798,3.077,3.0797,3.0819,3.0859,3.0901,3.0932,3.1007,3.1001,3.1037,3.1019,3.1099,3.1025,3.1031,3.1019,3.1016,3.1021,3.1114,3.1116,3.1118,3.112,0,3.0821,3.0809,3.0847,3.0881,3.0911,3.0936,3.0958,3.0983,3.0955,3.0987,3.1033,3.1057,3.1106,3.1147,3.1178,3.1184,3.1147,3.1143,3.116,3.117,3.1174,3.1172,3.0933,3.1138,3.1136,3.1135,3.1134,3.1133,3.0962,3.1007,3.102,3.1062,3.1075,3.1095,3.1136,3.1131,3.1169,3.1206,3.1186,3.1239,3.1252,3.1291,3.1301,3.1341,3.131,3.1335,3.1342,3.1348,3.1357,3.1168,3.1347,3.1346,3.1346,3.1345,3.1345,0,3.1151,3.1156,3.1195,3.1226,3.1259,3.122,3.1242,3.1271,3.1319,3.1334,3.1365,3.1417,3.1456,3.1452,3.1488,3.1521,3.1505,3.1531,3.1528,3.153,3.1383,3.1364,3.1543,3.1543,3.1543,3.1543,3.1543,3.1543,3.1253,3.1326,3.1316,3.1394,3.1398,3.145,3.1465,3.1483,3.1495,3.1554,3.1587,3.1583,3.1591,3.1626,3.166,3.1657,3.1672,3.1705,3.1697,3.156,3.154,3.1521,3.1503,3.1709,3.1709,3.1839,3.1841,3.1841]}]]